Weather History for Hollywood, FL

Change the Weather History Date:

Saturday, March 16, 2013

  Actual Average (KFLL) Record (KFLL)
Temperature  
Mean Temperature 64 °F 73 °F  
Max Temperature 75 °F 80 °F 90 °F (2008)
Min Temperature 54 °F 66 °F 44 °F (1954)
Degree Days  
Heating Degree Days 0 0  
Month to date heating degree days 7  
Since 1 July heating degree days 109  
Cooling Degree Days 0 8  
Month to date cooling degree days 124  
Year to date cooling degree days 480  
Growing Degree Days 14 (Base 50)    
Moisture  
Dew Point 51 °F    
Average Humidity 60    
Maximum Humidity 90    
Minimum Humidity 42    
Precipitation  
Precipitation 0.00 in 0.11 in 1.42 in (1986)
Month to date precipitation 1.64  
Year to date precipitation 8.23  
Snow  
Snow 0.00 in - - ()
Month to date snowfall  
Since 1 July snowfall  
Snow Depth -    
Sea Level Pressure  
Sea Level Pressure 30.17 in    
Wind  
Wind Speed 3 mph (SE)    
Max Wind Speed 14 mph    
Max Gust Speed 16 mph    
Visibility 10 miles    
Events      
T = Trace of Precipitation, MM = Missing Value Source: NWS Daily Summary

Daily Weather History Graph

Daily Weather History Graph

Search for Another Location

Airport:

Trip Planner

Search our weather history database for the weather conditions in past years. The results will help you decide how hot, cold, wet, or windy it might be!

Date:

Astronomy

Mar. 16, 2013 Rise Set
Actual Time 7:28 AM EDT 7:30 PM EDT
Civil Twilight 7:05 AM EDT 7:53 PM EDT
Nautical Twilight 6:39 AM EDT 8:20 PM EDT
Astronomical Twilight 6:12 AM EDT 8:47 PM EDT
Moon 10:26 AM EDT (3/16) No Moon Set
Length of Visible Light 12h 47m
Length of Day
12h 01m
Waxing Crescent, 23% of the Moon is Illuminated
Mar 16
Waxing Crescent
Mar 19
First Quarter
Mar 27
Full
Apr 3
Last Quarter
Apr 10
New

Hourly Weather History & Observations

Time (EDT) Temp. Dew Point Humidity Pressure Visibility Wind Dir Wind Speed Gust Speed Precip Events Conditions
12:53 AM 60.1 °F 48.9 °F 67% 30.21 in 10.0 mi Calm Calm - N/A   Clear
1:53 AM 57.9 °F 48.9 °F 72% 30.19 in 10.0 mi Calm Calm - N/A   Clear
2:53 AM 57.9 °F 48.9 °F 72% 30.19 in 10.0 mi Calm Calm - N/A   Clear
3:53 AM 57.0 °F 50.0 °F 77% 30.18 in 10.0 mi Calm Calm - N/A   Clear
4:53 AM 55.0 °F 48.9 °F 80% 30.18 in 10.0 mi Calm Calm - N/A   Clear
5:53 AM 54.0 °F 50.0 °F 86% 30.18 in 10.0 mi Calm Calm - N/A   Clear
6:53 AM 54.0 °F 51.1 °F 90% 30.19 in 10.0 mi WNW 3.5 mph - N/A   Clear
7:53 AM 55.0 °F 52.0 °F 89% 30.21 in 10.0 mi Calm Calm - N/A   Clear
8:53 AM 62.1 °F 55.9 °F 80% 30.21 in 10.0 mi Calm Calm - N/A   Clear
9:53 AM 70.0 °F 48.9 °F 47% 30.22 in 10.0 mi North 4.6 mph - N/A   Clear
10:53 AM 71.1 °F 48.9 °F 45% 30.22 in 10.0 mi East 4.6 mph - N/A   Partly Cloudy
11:53 AM 73.9 °F 51.1 °F 45% 30.21 in 10.0 mi East 6.9 mph - N/A   Mostly Cloudy
12:53 PM 75.9 °F 51.1 °F 42% 30.19 in 10.0 mi SE 9.2 mph 16.1 mph N/A   Mostly Cloudy
1:53 PM 75.0 °F 51.1 °F 43% 30.17 in 10.0 mi SSE 9.2 mph - N/A   Partly Cloudy
2:53 PM 75.0 °F 51.1 °F 43% 30.15 in 10.0 mi ESE 10.4 mph 16.1 mph N/A   Clear
3:53 PM 73.9 °F 50.0 °F 43% 30.13 in 10.0 mi SE 13.8 mph - N/A   Clear
4:53 PM 73.9 °F 50.0 °F 43% 30.12 in 10.0 mi SE 13.8 mph - N/A   Clear
5:53 PM 72.0 °F 50.0 °F 46% 30.13 in 10.0 mi SE 12.7 mph - N/A   Partly Cloudy
6:53 PM 70.0 °F 48.9 °F 47% 30.13 in 10.0 mi ESE 12.7 mph - N/A   Clear
7:53 PM 68.0 °F 50.0 °F 52% 30.13 in 10.0 mi SE 9.2 mph - N/A   Clear
8:53 PM 66.9 °F 51.1 °F 57% 30.14 in 10.0 mi SSE 3.5 mph - N/A   Clear
9:53 PM 66.9 °F 52.0 °F 59% 30.16 in 10.0 mi SE 4.6 mph - N/A   Clear
10:53 PM 66.0 °F 52.0 °F 60% 30.16 in 10.0 mi South 3.5 mph - N/A   Clear
11:53 PM 64.0 °F 52.0 °F 65% 30.16 in 10.0 mi Calm Calm - N/A   Clear